Regional Weather Roundup
Issued by NWS

Home | Current Version | Previous Version | Text Only | Print | Product List | Glossary Off
Versions: 1 2 3 4 5 6 7 8 9 10 11 12 13 14 15 16 17 18 19 20 21 22 23 24 25 26 27 28 29 30 31 32 33 34 35 36 37 38 39 40 41 42 43 44 45 46 47 48 49 50

349
ASUS43 KMPX 222310
RWRMN
WEATHER ROUNDUP FOR MINNESOTA
NATIONAL WEATHER SERVICE TWIN CITIES/CHANHASSEN MN
500 PM CST MON JAN 22 2018


NOTE: "FAIR" INDICATES FEW OR NO CLOUDS BELOW 12,000 FEET WITH NO
SIGNIFICANT WEATHER AND/OR OBSTRUCTIONS TO VISIBILITY. N/A MEANS
CURRENT SKY AND/OR WEATHER CONDITIONS ARE NOT AVAILABLE.

MNZ060>063-068>070-230000-
   Twin Cities Metro

CITY           SKY/WX    TMP DP  RH WIND       PRES   REMARKS
TWIN CITIES    HVY SNOW  27  27 100 N20G28    29.70R VSB 1/4 WCI  13
ST PAUL        SNOW      28  26  92 N13G24    29.71R VSB 1/4 WCI  17
CRYSTAL        HVY SNOW  27  23  85 N21G30    29.71R VSB 1/4 WCI  13
BLAINE         HVY SNOW  28  28 100 N21G30    29.72R VSB 1/4 WCI  15
LAKEVILLE        N/A    N/A N/A N/A MISG        N/A
EDEN PRAIRIE   SNOW      28  25  88 N18G36    29.68R VSB 1/4 WCI  15
SOUTH ST PAUL  SNOW      29  28  97 N15G22    29.69R VSB 1/2 WCI  17
LAKE ELMO        N/A     30  28  93 N12G20    29.70R WCI  21
$$
MNZ001>005-007-008-013>017-022>024-027-028-230000-
   Northwest Minnesota

CITY           SKY/WX    TMP DP  RH WIND       PRES   REMARKS
BEMIDJI        CLOUDY    24  19  84 NE9G16    29.97R WCI  14
HALLOCK        CLOUDY    27  19  74 NE8       30.08R WCI  18
ROSEAU         CLOUDY    25  18  74 E9        30.06R WCI  15
WARROAD        CLOUDY    21  18  86 NE10G18   30.07R WCI  10
THIEF RVR FALL CLOUDY    24  19  81 NE12      30.04R WCI  13
CROOKSTON      CLOUDY    25  21  86 NE9       30.06R WCI  15
FOSSTON        CLOUDY    21  19  93 NE12G18   30.00S WCI   9
DETROIT LAKES  CLOUDY    27  23  86 N10G17    29.96R WCI  17
MOORHEAD       CLOUDY    27  21  80 N18       30.01R WCI  13
PARK RAPIDS    CLOUDY    25  19  78 NE13G21   29.92R WCI  14
MAHNOMEN       CLOUDY    24  21  88 NE16      29.98R WCI  11
$$
MNZ006-009>011-018-025>026-230000-
   North Central Minnesota

CITY           SKY/WX    TMP DP  RH WIND       PRES   REMARKS
BAUDETTE       CLOUDY    21  16  81 N10       30.03R WCI  10
FLAG ISLAND    CLOUDY    19  14  79 NE9       30.07R WCI   9
INTL FALLS     CLOUDY    20  15  81 N7        30.01R WCI  11
WASKISH        CLOUDY    23  21  93 N7        30.01S WCI  15
BIG FORK       CLOUDY    23  18  80 N6        29.96S WCI  16
LONGVILLE      CLOUDY    25  19  80 N7        29.92R WCI  17
GRAND RAPIDS   CLOUDY    24  19  81 N12G20    29.93R WCI  13
CRANE LAKE     CLOUDY    19  16  86 N3        30.01S
ORR            CLOUDY    21  14  73 N3        29.94S
COOK           CLOUDY    21  16  79 N5        29.95R WCI  15
WALKER         CLOUDY    23  18  80 NE14G20   29.95R WCI  11
$$
MNZ012-019>021-037-230000-
   Northeast Minnesota

CITY           SKY/WX    TMP DP  RH WIND       PRES   REMARKS
DULUTH         CLOUDY    24  21  88 N9        29.84R WCI  14
HIBBING        CLOUDY    21  16  81 N13G22    29.89S WCI   9
EVELETH        CLOUDY    22  17  78 N10G17    29.90S WCI  12
DULUTH HARBOR  CLOUDY    28  25  86 NE22G29   29.88R WCI  15
TWO HARBORS    CLOUDY    28  23  80 N6        29.84R WCI  22
SILVER BAY     CLOUDY    25  21  86 N5        29.84F WCI  19
GRAND MARAIS     N/A     26  15  63 N13G26    29.88F WCI  15
G MARAIS ARPRT FAIR      16   9  73 N13G20    29.85F WCI   2
$$
MNZ029>031-032-039>041-046>048-054>057-064-230000-
   West Central Minnesota

CITY           SKY/WX    TMP DP  RH WIND       PRES   REMARKS
FERGUS FALLS   CLOUDY    28  21  74 NE7       29.94R WCI  21
WHEATON        CLOUDY    28  21  74 N13       29.96R WCI  18
MORRIS         CLOUDY    28  23  80 N15G21    29.89R WCI  17
ALEXANDRIA     CLOUDY    29  22  75 NE15G25   29.87R WCI  18
ELBOW LAKE     CLOUDY    28  22  80 NE16      29.92R WCI  15
WADENA         CLOUDY    25  19  80 N17       29.90R WCI  11
GLENWOOD       FAIR      28  23  80 N18G24    29.85S WCI  16
APPLETON       CLOUDY    30  25  80 N16       29.88R WCI  19
BENSON         CLOUDY    30  23  74 NE17G23   29.87S WCI  18
ORTONVILLE     CLOUDY    28  21  74 N18       29.90R WCI  16
MADISON        CLOUDY    32  27  80 N20G28    29.88R WCI  20
WILLMAR        CLOUDY    30  25  80 N20G28    29.83R WCI  18
$$
MNZ033>034-036-042>043-049>051-058-059-230000-
   Central Minnesota

CITY           SKY/WX    TMP DP  RH WIND       PRES   REMARKS
ST CLOUD       CLOUDY    28  23  81 N16G25    29.81R WCI  16
SAUK CENTRE      N/A     29  23  78 N16G23    29.84R WCI  18
PAYNESVILLE    CLOUDY    30  26  85 N14G21    29.82R WCI  19
AITKIN         CLOUDY    27  19  74 N10G16    29.87R WCI  17
PINE RIVER     CLOUDY    25  19  80 N12G21    29.94R WCI  14
BRAINERD       CLOUDY    29  21  72 N13       29.88R WCI  19
STAPLES        CLOUDY    27  19  74 N12G18    29.89R WCI  16
LONG PRAIRIE   CLOUDY    28  23  80 NW14G22   29.85S WCI  17
LITTLE FALLS     N/A    N/A N/A N/A N7          N/A
LITCHFIELD     CLOUDY    30  25  80 N16G24    29.78R WCI  19
BUFFALO        LGT SNOW  27  25  90 N14G22    29.77R VSB 1   WCI  16
MAPLE LAKE     LGT SNOW  29  26  88 MISG      29.78S
HUTCHINSON     LGT SNOW  28  26  92 N17G28    29.75S WCI  16
$$
MNZ037-044-045-052-053-230000-
   East Central Minnesota

CITY           SKY/WX    TMP DP  RH WIND       PRES   REMARKS
PRINCETON      LGT SNOW  28  25  86 N13G22    29.80R WCI  18
MORA           CLOUDY    27  23  86 N10G20    29.84R WCI  17
CAMBRIDGE      LGT SNOW  28  23  80 N10G18    29.79R WCI  19
RUSH CITY      SNOW      26  23  91 N9G24     29.80R VSB 1/2 WCI  16
MOOSE LAKE     CLOUDY    27  21  80 NE14G21   29.84R WCI  15
HINCKLEY       CLOUDY    27  25  93 N16G23    29.82R WCI  14
CLOQUET        CLOUDY    27  19  74 N8        29.85R WCI  18
MCGREGOR       CLOUDY    28  21  74 N12       29.88R WCI  18
$$
MNZ071>073-080-081-089-090-097-098-230000-
   Southwest Minnesota

CITY           SKY/WX    TMP DP  RH WIND       PRES   REMARKS
MONTEVIDEO     CLOUDY    30  25  80 NE18G24   29.84R WCI  18
GRANITE FALLS  CLOUDY    32  27  80 N18G24    29.84R WCI  20
CANBY          CLOUDY    30  26  85 N17G25    29.87R WCI  18
MARSHALL       CLOUDY    29  25  85 N20G30    29.81R WCI  16
REDWOOD FALLS  CLOUDY    29  24  82 N21G30    29.77R WCI  16
OLIVIA         CLOUDY    30  25  80 N20G28    29.78R WCI  18
PIPESTONE      CLOUDY    27  23  86 N20G32    29.77R WCI  13
WINDOM         SNOW      27  14  59 N29G41    29.69R VSB 1/2 WCI  11
WORTHINGTON    SNOW      26  25  96 N35       29.69R VSB 1/2 WCI   9
JACKSON        CLOUDY    28  27  93 N23G30    29.67R VSB 3/4 WCI  14
TRACY          CLOUDY    29  26  89 N24G32    29.77R FOG     WCI  15
SLAYTON        CLOUDY    27  25  91 N28G37    29.74R WCI  11
$$
MNZ065>067-074>077-082>085-091>093-230000-
   South Central Minnesota

CITY           SKY/WX    TMP DP  RH WIND       PRES   REMARKS
MANKATO        LGT SNOW  28  27  96 N24G32    29.67R VSB 1   WCI  14
NEW ULM          N/A     27  25  93 N16G22    29.70R WCI  14
ST JAMES       CLOUDY    27  27 100 N23G30    29.70R WCI  12
FAIRMONT       SNOW      28  27  96 N29G35    29.64R VSB 1/2 WCI  12
GLENCOE        CLOUDY    28  28 100 VRB17G28  29.72R WCI  16
FARIBAULT      LGT SNOW  28  27  93 N16G23    29.64R WCI  17
OWATONNA         N/A     30  28  93 N22       29.61R WCI  17
WASECA           N/A     30  28  93 N29       29.64R WCI  15
ALBERT LEA     CLOUDY    30  28  93 N18G25    29.56R FOG     WCI  18
$$
MNZ078>079-086>088-094>096-230000-
   Southeast Minnesota

CITY           SKY/WX    TMP DP  RH WIND       PRES   REMARKS
ROCHESTER      LGT SNOW  31  30  96 N21G29    29.55R FOG     WCI  18
RED WING       LGT SNOW  30  27  86 NE12G18   29.63R WCI  21
STANTON        LGT SNOW  30  28  91 N24       29.63R WCI  16
DODGE CENTER   MIX PCPN  28  28 100 N16G22    29.57R WCI  17
WINONA         LGT RAIN  34  34 100 NE5       29.56R WCI  30
AUSTIN         CLOUDY    30  28  93 NE13G18   29.54R WCI  20
PRESTON        CLOUDY    32  30  94 N12       29.53R WCI  23
$$
ABBREVIATIONS USED IN REMARKS
   TC - TEMPERATURES IN CELSIUS
  WCI - WIND CHILL INDEX
   HX - HEAT INDEX
  VSB - VISIBILITY
$$




USA.gov is the U.S. government's official web portal to all federal, state and local government web resources and services.